Time,TemperatureF,DewpointF,PressureIn,WindDirection,WindDirectionDegrees,WindSpeedMPH,WindSpeedGustMPH,Humidity,HourlyPrecipIn,Conditions,Clouds,dailyrainin,SoftwareType,DateUTC
2013-04-28 00:01:00,54.9,39.5,30.20,East,90,2.3,2.3,56,0.00,CLR,,0.00,WeatherDisplay:10.37,2013-04-28 04:01:00,
2013-04-28 00:06:00,54.7,39.3,30.21,East,90,1.1,0.0,56,0.00,CLR,,0.00,WeatherDisplay:10.37,2013-04-28 04:06:00,
2013-04-28 00:11:00,54.5,39.1,30.20,East,90,1.1,0.0,56,0.00,CLR,,0.00,WeatherDisplay:10.37,2013-04-28 04:11:00,
2013-04-28 00:16:00,54.3,38.9,30.20,East,90,1.1,0.0,56,0.00,CLR,,0.00,WeatherDisplay:10.37,2013-04-28 04:16:00,
2013-04-28 00:21:00,53.8,38.4,30.20,East,90,1.1,1.1,56,0.00,CLR,,0.00,WeatherDisplay:10.37,2013-04-28 04:21:00,
2013-04-28 00:26:00,53.8,38.4,30.20,East,90,1.1,0.0,56,0.00,CLR,,0.00,WeatherDisplay:10.37,2013-04-28 04:26:00,
2013-04-28 00:31:00,53.8,38.4,30.20,East,90,1.1,0.0,56,0.00,CLR,,0.00,WeatherDisplay:10.37,2013-04-28 04:31:00,
2013-04-28 00:36:00,53.8,38.4,30.20,North,4,1.1,0.0,56,0.00,CLR,,0.00,WeatherDisplay:10.37,2013-04-28 04:36:00,
2013-04-28 00:41:00,53.8,38.4,30.20,North,0,1.1,0.0,56,0.00,CLR,,0.00,WeatherDisplay:10.37,2013-04-28 04:41:00,
2013-04-28 00:46:00,53.8,38.4,30.20,North,0,1.1,0.0,56,0.00,CLR,,0.00,WeatherDisplay:10.37,2013-04-28 04:46:00,
2013-04-28 00:52:00,53.8,38.4,30.20,North,0,1.1,0.0,56,0.00,CLR,,0.00,WeatherDisplay:10.37,2013-04-28 04:52:00,
2013-04-28 00:56:00,53.8,38.4,30.20,North,0,1.1,0.0,56,0.00,CLR,,0.00,WeatherDisplay:10.37,2013-04-28 04:56:00,
2013-04-28 01:02:00,53.8,38.4,30.19,North,0,1.1,0.0,56,0.00,CLR,,0.00,WeatherDisplay:10.37,2013-04-28 05:02:00,
2013-04-28 01:07:00,53.8,38.4,30.19,North,0,1.1,0.0,56,0.00,CLR,,0.00,WeatherDisplay:10.37,2013-04-28 05:07:00,
2013-04-28 01:12:00,53.8,38.4,30.19,North,0,1.1,0.0,56,0.00,CLR,,0.00,WeatherDisplay:10.37,2013-04-28 05:12:00,
2013-04-28 01:17:00,51.8,39.2,30.19,SE,135,1.1,0.0,62,0.00,CLR,,0.00,WeatherDisplay:10.37,2013-04-28 05:17:00,
2013-04-28 01:22:00,51.8,39.2,30.19,East,90,1.1,0.0,62,0.00,CLR,,0.00,WeatherDisplay:10.37,2013-04-28 05:22:00,
2013-04-28 01:27:00,51.6,39.4,30.19,SE,135,1.1,1.1,63,0.00,CLR,,0.00,WeatherDisplay:10.37,2013-04-28 05:27:00,
2013-04-28 01:32:00,51.4,39.3,30.19,SE,135,1.1,0.0,63,0.00,CLR,,0.00,WeatherDisplay:10.37,2013-04-28 05:32:00,
2013-04-28 01:37:00,51.1,39.3,30.19,East,90,1.1,0.0,64,0.00,CLR,,0.00,WeatherDisplay:10.37,2013-04-28 05:37:00,
2013-04-28 01:42:00,51.1,38.9,30.19,East,90,1.1,1.1,63,0.00,CLR,,0.00,WeatherDisplay:10.37,2013-04-28 05:42:00,
2013-04-28 01:47:00,51.3,39.1,30.18,North,0,0.0,0.0,63,0.00,CLR,,0.00,WeatherDisplay:10.37,2013-04-28 05:47:00,
2013-04-28 01:52:00,51.3,39.1,30.18,NW,315,0.0,0.0,63,0.00,CLR,,0.00,WeatherDisplay:10.37,2013-04-28 05:52:00,
2013-04-28 01:57:00,51.1,38.9,30.18,SW,225,0.0,0.0,63,0.00,CLR,,0.00,WeatherDisplay:10.37,2013-04-28 05:57:00,
2013-04-28 02:02:00,50.5,38.4,30.18,SW,225,0.0,0.0,63,0.00,CLR,,0.00,WeatherDisplay:10.37,2013-04-28 06:02:00,
2013-04-28 02:07:00,50.2,38.1,30.18,SW,225,1.1,0.0,63,0.00,CLR,,0.00,WeatherDisplay:10.37,2013-04-28 06:07:00,
2013-04-28 02:12:00,50.4,38.2,30.18,NE,45,1.1,0.0,63,0.00,CLR,,0.00,WeatherDisplay:10.37,2013-04-28 06:12:00,
2013-04-28 02:17:00,50.4,38.2,30.18,SE,135,1.1,0.0,63,0.00,CLR,,0.00,WeatherDisplay:10.37,2013-04-28 06:17:00,
2013-04-28 02:22:00,50.5,38.4,30.18,South,180,0.0,0.0,63,0.00,CLR,,0.00,WeatherDisplay:10.37,2013-04-28 06:22:00,
2013-04-28 02:27:00,50.5,38.4,30.17,SE,135,1.1,0.0,63,0.00,CLR,,0.00,WeatherDisplay:10.37,2013-04-28 06:27:00,
2013-04-28 02:32:00,50.5,38.4,30.17,SE,135,0.0,0.0,63,0.00,CLR,,0.00,WeatherDisplay:10.37,2013-04-28 06:32:00,
2013-04-28 02:37:00,50.5,38.4,30.18,SE,135,0.0,0.0,63,0.00,CLR,,0.00,WeatherDisplay:10.37,2013-04-28 06:37:00,
2013-04-28 02:42:00,50.5,38.4,30.17,North,6,0.0,0.0,63,0.00,CLR,,0.00,WeatherDisplay:10.37,2013-04-28 06:42:00,
2013-04-28 02:47:00,50.4,38.2,30.17,SE,135,1.1,0.0,63,0.00,CLR,,0.00,WeatherDisplay:10.37,2013-04-28 06:47:00,
2013-04-28 02:52:00,50.2,38.1,30.18,SE,135,1.1,0.0,63,0.00,CLR,,0.00,WeatherDisplay:10.37,2013-04-28 06:52:00,
2013-04-28 02:57:00,50.2,38.1,30.18,SE,135,1.1,0.0,63,0.00,CLR,,0.00,WeatherDisplay:10.37,2013-04-28 06:57:00,
2013-04-28 03:02:00,50.0,37.9,30.17,SE,135,0.0,0.0,63,0.00,CLR,,0.00,WeatherDisplay:10.37,2013-04-28 07:02:00,
2013-04-28 03:07:00,50.0,37.9,30.17,SE,135,0.0,0.0,63,0.00,CLR,,0.00,WeatherDisplay:10.37,2013-04-28 07:07:00,
2013-04-28 03:12:00,50.0,37.9,30.17,SE,135,0.0,0.0,63,0.00,CLR,,0.00,WeatherDisplay:10.37,2013-04-28 07:12:00,
2013-04-28 03:17:00,49.3,37.6,30.18,SE,135,0.0,0.0,64,0.00,CLR,,0.00,WeatherDisplay:10.37,2013-04-28 07:17:00,
2013-04-28 03:22:00,49.3,37.6,30.17,SE,135,0.0,0.0,64,0.00,CLR,,0.00,WeatherDisplay:10.37,2013-04-28 07:22:00,
2013-04-28 03:27:00,49.3,37.6,30.17,SE,135,1.1,0.0,64,0.00,CLR,,0.00,WeatherDisplay:10.37,2013-04-28 07:27:00,
2013-04-28 03:32:00,49.3,37.6,30.17,North,6,1.1,0.0,64,0.00,CLR,,0.00,WeatherDisplay:10.37,2013-04-28 07:32:00,
2013-04-28 03:37:00,48.4,37.2,30.17,SE,135,1.1,0.0,65,0.00,CLR,,0.00,WeatherDisplay:10.37,2013-04-28 07:37:00,
2013-04-28 03:42:00,48.0,37.2,30.17,SE,135,0.0,0.0,66,0.00,CLR,,0.00,WeatherDisplay:10.37,2013-04-28 07:42:00,
2013-04-28 03:47:00,48.0,37.2,30.17,SE,135,0.0,0.0,66,0.00,CLR,,0.00,WeatherDisplay:10.37,2013-04-28 07:47:00,
2013-04-28 03:52:00,48.0,37.2,30.17,North,6,0.0,0.0,66,0.00,CLR,,0.00,WeatherDisplay:10.37,2013-04-28 07:52:00,
2013-04-28 03:57:00,46.9,36.2,30.17,SE,135,0.0,0.0,66,0.00,CLR,,0.00,WeatherDisplay:10.37,2013-04-28 07:57:00,
2013-04-28 04:02:00,46.9,36.5,30.17,SE,135,0.0,0.0,67,0.00,CLR,,0.00,WeatherDisplay:10.37,2013-04-28 08:02:00,
2013-04-28 04:07:00,46.8,36.4,30.17,SE,135,0.0,0.0,67,0.00,CLR,,0.00,WeatherDisplay:10.37,2013-04-28 08:07:00,
2013-04-28 04:12:00,46.8,36.8,30.17,NE,45,0.0,0.0,68,0.00,CLR,,0.00,WeatherDisplay:10.37,2013-04-28 08:12:00,
2013-04-28 04:17:00,46.4,36.4,30.17,NE,45,0.0,0.0,68,0.00,CLR,,0.00,WeatherDisplay:10.37,2013-04-28 08:17:00,
2013-04-28 04:22:00,45.9,35.9,30.17,NE,45,0.0,0.0,68,0.00,CLR,,0.00,WeatherDisplay:10.37,2013-04-28 08:22:00,
2013-04-28 04:27:00,45.5,35.5,30.17,NE,45,0.0,0.0,68,0.00,CLR,,0.00,WeatherDisplay:10.37,2013-04-28 08:27:00,
2013-04-28 04:32:00,45.1,35.6,30.17,NE,45,0.0,0.0,69,0.00,CLR,,0.00,WeatherDisplay:10.37,2013-04-28 08:32:00,
2013-04-28 04:37:00,45.1,35.6,30.17,NE,45,0.0,0.0,69,0.00,CLR,,0.00,WeatherDisplay:10.37,2013-04-28 08:37:00,
2013-04-28 04:42:00,45.1,35.6,30.16,North,2,0.0,0.0,69,0.00,CLR,,0.00,WeatherDisplay:10.37,2013-04-28 08:42:00,
2013-04-28 04:47:00,45.3,36.5,30.16,East,90,0.0,0.0,71,0.00,CLR,,0.00,WeatherDisplay:10.37,2013-04-28 08:47:00,
2013-04-28 04:52:00,45.5,37.0,30.16,East,90,0.0,0.0,72,0.00,CLR,,0.00,WeatherDisplay:10.37,2013-04-28 08:52:00,
2013-04-28 04:57:00,45.1,36.3,30.16,East,90,0.0,0.0,71,0.00,CLR,,0.00,WeatherDisplay:10.37,2013-04-28 08:57:00,
2013-04-28 05:02:00,44.8,35.9,30.15,East,90,0.0,0.0,71,0.00,CLR,,0.00,WeatherDisplay:10.37,2013-04-28 09:02:00,
2013-04-28 05:07:00,44.4,36.0,30.15,East,90,0.0,0.0,72,0.00,CLR,,0.00,WeatherDisplay:10.37,2013-04-28 09:07:00,
2013-04-28 05:12:00,44.1,35.6,30.15,East,90,0.0,0.0,72,0.00,CLR,,0.00,WeatherDisplay:10.37,2013-04-28 09:12:00,
2013-04-28 05:17:00,43.9,35.8,30.15,East,90,0.0,0.0,73,0.00,CLR,,0.00,WeatherDisplay:10.37,2013-04-28 09:17:00,
2013-04-28 05:22:00,43.7,35.6,30.15,East,90,0.0,0.0,73,0.00,CLR,,0.00,WeatherDisplay:10.37,2013-04-28 09:22:00,
2013-04-28 05:27:00,43.7,35.6,30.15,East,90,0.0,0.0,73,0.00,CLR,,0.00,WeatherDisplay:10.37,2013-04-28 09:27:00,
2013-04-28 05:32:00,43.7,36.0,30.15,East,90,0.0,0.0,74,0.00,CLR,,0.00,WeatherDisplay:10.37,2013-04-28 09:32:00,
2013-04-28 05:37:00,44.1,36.3,30.15,East,90,0.0,0.0,74,0.00,CLR,,0.00,WeatherDisplay:10.37,2013-04-28 09:37:00,
2013-04-28 05:42:00,43.9,36.1,30.15,East,90,0.0,0.0,74,0.00,CLR,,0.00,WeatherDisplay:10.37,2013-04-28 09:42:00,
2013-04-28 05:47:00,43.7,36.0,30.15,East,90,0.0,0.0,74,0.00,CLR,,0.00,WeatherDisplay:10.37,2013-04-28 09:47:00,
2013-04-28 05:52:00,43.5,35.8,30.15,East,90,0.0,0.0,74,0.00,CLR,,0.00,WeatherDisplay:10.37,2013-04-28 09:52:00,
2013-04-28 05:57:00,43.5,35.8,30.15,East,90,0.0,0.0,74,0.00,CLR,,0.00,WeatherDisplay:10.37,2013-04-28 09:57:00,
2013-04-28 06:02:00,43.3,35.6,30.15,East,90,0.0,0.0,74,0.00,CLR,,0.00,WeatherDisplay:10.37,2013-04-28 10:02:00,
2013-04-28 06:07:00,43.5,36.1,30.15,West,270,0.0,0.0,75,0.00,CLR,,0.00,WeatherDisplay:10.37,2013-04-28 10:07:00,
2013-04-28 06:13:00,43.3,35.9,30.15,West,270,0.0,0.0,75,0.00,CLR,,0.00,WeatherDisplay:10.37,2013-04-28 10:13:00,
2013-04-28 06:18:00,43.5,36.5,30.15,SE,135,1.6,1.6,76,0.00,CLR,,0.00,WeatherDisplay:10.37,2013-04-28 10:18:00,
2013-04-28 06:23:00,43.7,36.6,30.15,SE,135,0.0,0.0,76,0.00,CLR,,0.00,WeatherDisplay:10.37,2013-04-28 10:23:00,
2013-04-28 06:28:00,43.9,36.8,30.15,West,270,0.0,0.0,76,0.00,CLR,,0.00,WeatherDisplay:10.37,2013-04-28 10:28:00,
2013-04-28 06:33:00,43.9,36.8,30.15,West,270,0.0,0.0,76,0.00,CLR,,0.00,WeatherDisplay:10.37,2013-04-28 10:33:00,
2013-04-28 06:38:00,43.9,36.8,30.15,West,270,1.1,0.0,76,0.00,CLR,,0.00,WeatherDisplay:10.37,2013-04-28 10:38:00,
2013-04-28 06:43:00,44.2,37.2,30.15,West,270,1.1,0.0,76,0.00,CLR,,0.00,WeatherDisplay:10.37,2013-04-28 10:43:00,
2013-04-28 06:48:00,44.6,37.2,30.15,West,270,0.0,0.0,75,0.00,CLR,,0.00,WeatherDisplay:10.37,2013-04-28 10:48:00,
2013-04-28 06:53:00,45.0,37.2,30.16,West,270,0.0,0.0,74,0.00,CLR,,0.00,WeatherDisplay:10.37,2013-04-28 10:53:00,
2013-04-28 06:58:00,45.5,37.7,30.15,West,270,0.0,0.0,74,0.00,CLR,,0.00,WeatherDisplay:10.37,2013-04-28 10:58:00,
2013-04-28 07:03:00,46.0,38.2,30.16,West,270,0.0,0.0,74,0.00,CLR,,0.00,WeatherDisplay:10.37,2013-04-28 11:03:00,
2013-04-28 07:08:00,46.8,38.9,30.16,West,270,0.0,0.0,74,0.00,CLR,,0.00,WeatherDisplay:10.37,2013-04-28 11:08:00,
2013-04-28 07:13:00,47.1,39.3,30.16,West,270,1.1,0.0,74,0.00,CLR,,0.00,WeatherDisplay:10.37,2013-04-28 11:13:00,
2013-04-28 07:18:00,47.1,39.3,30.16,West,270,1.1,0.0,74,0.00,CLR,,0.00,WeatherDisplay:10.37,2013-04-28 11:18:00,
2013-04-28 07:23:00,47.1,39.3,30.16,NNE,13,1.1,0.0,74,0.00,CLR,,0.00,WeatherDisplay:10.37,2013-04-28 11:23:00,
2013-04-28 07:28:00,47.1,39.3,30.16,North,0,1.1,0.0,74,0.00,CLR,,0.00,WeatherDisplay:10.37,2013-04-28 11:28:00,
2013-04-28 07:33:00,47.1,39.3,30.17,North,0,1.1,0.0,74,0.00,CLR,,0.00,WeatherDisplay:10.37,2013-04-28 11:33:00,
2013-04-28 07:38:00,47.1,39.3,30.17,North,0,1.1,0.0,74,0.00,CLR,,0.00,WeatherDisplay:10.37,2013-04-28 11:38:00,
2013-04-28 07:43:00,47.1,39.3,30.17,North,0,1.1,0.0,74,0.00,CLR,,0.00,WeatherDisplay:10.37,2013-04-28 11:43:00,
2013-04-28 07:48:00,47.1,39.3,30.17,North,0,1.1,0.0,74,0.00,CLR,,0.00,WeatherDisplay:10.37,2013-04-28 11:48:00,
2013-04-28 07:53:00,55.2,42.8,30.17,SE,135,1.1,0.0,63,0.00,CLR,,0.00,WeatherDisplay:10.37,2013-04-28 11:53:00,
2013-04-28 07:58:00,56.3,43.0,30.17,East,90,1.1,0.0,61,0.00,CLR,,0.00,WeatherDisplay:10.37,2013-04-28 11:58:00,
2013-04-28 08:03:00,57.9,43.2,30.17,South,180,3.5,3.5,58,0.00,CLR,,0.00,WeatherDisplay:10.37,2013-04-28 12:03:00,
2013-04-28 08:08:00,59.9,42.7,30.17,SE,135,2.3,3.1,53,0.00,CLR,,0.00,WeatherDisplay:10.37,2013-04-28 12:08:00,
2013-04-28 08:13:00,60.4,42.2,30.17,East,90,1.1,1.1,51,0.00,CLR,,0.00,WeatherDisplay:10.37,2013-04-28 12:13:00,
2013-04-28 08:18:00,61.0,41.1,30.17,South,180,2.3,2.3,48,0.00,CLR,,0.00,WeatherDisplay:10.37,2013-04-28 12:18:00,
2013-04-28 08:23:00,61.0,40.6,30.17,SE,135,4.6,4.6,47,0.00,CLR,,0.00,WeatherDisplay:10.37,2013-04-28 12:23:00,
2013-04-28 08:28:00,61.0,40.6,30.17,SE,135,4.6,4.6,47,0.00,CLR,,0.00,WeatherDisplay:10.37,2013-04-28 12:28:00,
2013-04-28 08:33:00,61.0,40.6,30.17,North,1,4.6,4.6,47,0.00,CLR,,0.00,WeatherDisplay:10.37,2013-04-28 12:33:00,
2013-04-28 08:38:00,61.0,40.6,30.17,North,0,4.6,4.6,47,0.00,CLR,,0.00,WeatherDisplay:10.37,2013-04-28 12:38:00,
2013-04-28 08:43:00,61.0,40.6,30.17,North,0,4.6,4.6,47,0.00,CLR,,0.00,WeatherDisplay:10.37,2013-04-28 12:43:00,
2013-04-28 08:48:00,61.0,40.6,30.17,North,0,4.6,4.6,47,0.00,CLR,,0.00,WeatherDisplay:10.37,2013-04-28 12:48:00,
2013-04-28 08:53:00,61.0,40.6,30.17,North,0,4.6,4.6,47,0.00,CLR,,0.00,WeatherDisplay:10.37,2013-04-28 12:53:00,
2013-04-28 08:58:00,64.4,42.6,30.17,South,180,4.6,4.6,45,0.00,CLR,,0.00,WeatherDisplay:10.37,2013-04-28 12:58:00,
2013-04-28 09:03:00,64.4,42.6,30.17,South,180,4.6,4.6,45,0.00,CLR,,0.00,WeatherDisplay:10.37,2013-04-28 13:03:00,
2013-04-28 09:08:00,64.9,43.1,30.17,SE,135,4.6,4.6,45,0.00,CLR,,0.00,WeatherDisplay:10.37,2013-04-28 13:08:00,
2013-04-28 09:13:00,65.5,43.0,30.17,South,180,8.1,8.1,44,0.00,CLR,,0.00,WeatherDisplay:10.37,2013-04-28 13:13:00,
2013-04-28 09:18:00,65.8,43.3,30.16,SW,225,6.9,6.9,44,0.00,CLR,,0.00,WeatherDisplay:10.37,2013-04-28 13:18:00,
2013-04-28 09:23:00,66.2,42.4,30.17,South,180,5.8,5.8,42,0.00,CLR,,0.00,WeatherDisplay:10.37,2013-04-28 13:23:00,
2013-04-28 09:28:00,67.5,44.2,30.17,South,180,10.7,10.7,43,0.00,CLR,,0.00,WeatherDisplay:10.37,2013-04-28 13:28:00,
2013-04-28 09:33:00,68.4,43.7,30.16,SW,225,4.6,4.6,41,0.00,CLR,,0.00,WeatherDisplay:10.37,2013-04-28 13:33:00,
2013-04-28 09:38:00,68.2,42.3,30.16,SW,225,9.2,9.2,39,0.00,CLR,,0.00,WeatherDisplay:10.37,2013-04-28 13:38:00,
2013-04-28 09:43:00,68.4,42.4,30.16,SW,225,10.4,10.4,39,0.00,CLR,,0.00,WeatherDisplay:10.37,2013-04-28 13:43:00,
2013-04-28 09:48:00,69.1,43.7,30.16,NW,315,4.6,4.6,40,0.00,CLR,,0.00,WeatherDisplay:10.37,2013-04-28 13:48:00,
2013-04-28 09:53:00,69.6,42.9,30.16,SE,135,6.9,6.9,38,0.00,CLR,,0.00,WeatherDisplay:10.37,2013-04-28 13:53:00,
2013-04-28 09:58:00,69.6,42.9,30.16,SE,135,8.1,8.1,38,0.00,CLR,,0.00,WeatherDisplay:10.37,2013-04-28 13:58:00,
2013-04-28 10:03:00,70.7,43.1,30.16,NW,315,6.9,6.9,37,0.00,CLR,,0.00,WeatherDisplay:10.37,2013-04-28 14:03:00,
2013-04-28 10:08:00,72.0,42.8,30.16,SE,135,8.1,8.1,35,0.00,CLR,,0.00,WeatherDisplay:10.37,2013-04-28 14:08:00,
2013-04-28 10:13:00,71.1,42.0,30.15,West,270,9.2,9.2,35,0.00,CLR,,0.00,WeatherDisplay:10.37,2013-04-28 14:13:00,
2013-04-28 10:18:00,71.2,42.2,30.15,South,180,8.1,8.1,35,0.00,CLR,,0.00,WeatherDisplay:10.37,2013-04-28 14:18:00,
2013-04-28 10:23:00,72.7,43.4,30.14,SW,225,6.0,6.0,35,0.00,CLR,,0.00,WeatherDisplay:10.37,2013-04-28 14:23:00,
2013-04-28 10:28:00,73.0,42.2,30.14,South,180,9.2,9.2,33,0.00,CLR,,0.00,WeatherDisplay:10.37,2013-04-28 14:28:00,
2013-04-28 10:33:00,72.5,41.7,30.14,SW,225,9.8,9.8,33,0.00,CLR,,0.00,WeatherDisplay:10.37,2013-04-28 14:33:00,
2013-04-28 10:38:00,72.5,41.7,30.14,South,180,8.1,8.1,33,0.00,CLR,,0.00,WeatherDisplay:10.37,2013-04-28 14:38:00,
2013-04-28 10:43:00,72.1,40.6,30.14,East,90,9.2,9.2,32,0.00,CLR,,0.00,WeatherDisplay:10.37,2013-04-28 14:43:00,
2013-04-28 10:48:00,72.3,40.8,30.14,SW,225,10.4,10.4,32,0.00,CLR,,0.00,WeatherDisplay:10.37,2013-04-28 14:48:00,
2013-04-28 10:53:00,71.8,40.3,30.13,South,180,12.7,12.7,32,0.00,CLR,,0.00,WeatherDisplay:10.37,2013-04-28 14:53:00,
2013-04-28 10:58:00,72.5,41.7,30.13,South,180,10.4,10.4,33,0.00,CLR,,0.00,WeatherDisplay:10.37,2013-04-28 14:58:00,
2013-04-28 11:03:00,73.2,42.4,30.13,East,90,8.1,8.1,33,0.00,CLR,,0.00,WeatherDisplay:10.37,2013-04-28 15:03:00,
2013-04-28 11:08:00,73.9,42.2,30.13,South,180,8.1,8.1,32,0.00,CLR,,0.00,WeatherDisplay:10.37,2013-04-28 15:08:00,
2013-04-28 11:13:00,74.7,41.2,30.12,SW,225,8.1,8.1,30,0.00,CLR,,0.00,WeatherDisplay:10.37,2013-04-28 15:13:00,
2013-04-28 11:18:00,74.3,40.8,30.12,SW,225,12.7,12.7,30,0.00,CLR,,0.00,WeatherDisplay:10.37,2013-04-28 15:18:00,
2013-04-28 11:23:00,73.4,39.2,30.12,South,180,8.1,8.1,29,0.00,CLR,,0.00,WeatherDisplay:10.37,2013-04-28 15:23:00,
2013-04-28 11:28:00,73.4,38.3,30.12,WNW,292,10.4,10.4,28,0.00,CLR,,0.00,WeatherDisplay:10.37,2013-04-28 15:28:00,
2013-04-28 11:33:00,73.4,38.3,30.11,SW,225,10.4,10.4,28,0.00,CLR,,0.00,WeatherDisplay:10.37,2013-04-28 15:33:00,
2013-04-28 11:38:00,72.7,35.8,30.12,SE,135,12.7,12.7,26,0.00,CLR,,0.00,WeatherDisplay:10.37,2013-04-28 15:38:00,
2013-04-28 11:43:00,72.9,36.9,30.11,South,180,8.1,8.1,27,0.00,CLR,,0.00,WeatherDisplay:10.37,2013-04-28 15:43:00,
2013-04-28 11:49:00,74.3,39.1,30.11,SW,225,10.4,10.4,28,0.00,CLR,,0.00,WeatherDisplay:10.37,2013-04-28 15:49:00,
2013-04-28 11:54:00,74.5,39.2,30.11,SW,225,10.4,10.4,28,0.00,CLR,,0.00,WeatherDisplay:10.37,2013-04-28 15:54:00,
2013-04-28 11:59:00,74.7,38.4,30.11,East,90,12.7,12.7,27,0.00,CLR,,0.00,WeatherDisplay:10.37,2013-04-28 15:59:00,
2013-04-28 12:04:00,74.7,37.5,30.10,SE,135,5.8,5.8,26,0.00,CLR,,0.00,WeatherDisplay:10.37,2013-04-28 16:04:00,
2013-04-28 12:09:00,74.7,38.4,30.11,South,180,11.5,11.5,27,0.00,CLR,,0.00,WeatherDisplay:10.37,2013-04-28 16:09:00,
2013-04-28 12:14:00,74.1,37.0,30.11,SW,225,12.7,12.7,26,0.00,CLR,,0.00,WeatherDisplay:10.37,2013-04-28 16:14:00,
2013-04-28 12:19:00,73.4,36.4,30.11,SE,135,12.7,12.7,26,0.00,CLR,,0.00,WeatherDisplay:10.37,2013-04-28 16:19:00,
2013-04-28 12:24:00,73.8,34.7,30.10,SE,135,18.4,18.4,24,0.00,CLR,,0.00,WeatherDisplay:10.37,2013-04-28 16:24:00,
2013-04-28 12:29:00,74.1,31.7,30.10,South,180,15.0,15.0,21,0.00,CLR,,0.00,WeatherDisplay:10.37,2013-04-28 16:29:00,
2013-04-28 12:34:00,75.7,33.0,30.09,East,90,10.4,10.4,21,0.00,CLR,,0.00,WeatherDisplay:10.37,2013-04-28 16:34:00,
2013-04-28 12:39:00,75.4,32.7,30.09,SE,135,12.7,12.7,21,0.00,CLR,,0.00,WeatherDisplay:10.37,2013-04-28 16:39:00,
2013-04-28 12:44:00,73.8,30.2,30.08,SE,135,16.1,16.1,20,0.00,CLR,,0.00,WeatherDisplay:10.37,2013-04-28 16:44:00,
2013-04-28 12:49:00,74.8,33.4,30.08,South,180,11.5,11.5,22,0.00,CLR,,0.00,WeatherDisplay:10.37,2013-04-28 16:49:00,
2013-04-28 12:54:00,74.1,32.8,30.08,South,180,12.7,12.7,22,0.00,CLR,,0.00,WeatherDisplay:10.37,2013-04-28 16:54:00,
2013-04-28 12:59:00,73.8,32.5,30.08,SE,135,17.3,17.3,22,0.00,CLR,,0.00,WeatherDisplay:10.37,2013-04-28 16:59:00,
2013-04-28 13:04:00,73.4,31.1,30.08,South,180,13.8,13.8,21,0.00,CLR,,0.00,WeatherDisplay:10.37,2013-04-28 17:04:00,
2013-04-28 13:09:00,73.8,32.5,30.08,South,180,12.7,12.7,22,0.00,CLR,,0.00,WeatherDisplay:10.37,2013-04-28 17:09:00,
2013-04-28 13:14:00,74.1,35.0,30.07,SE,135,11.5,11.5,24,0.00,CLR,,0.00,WeatherDisplay:10.37,2013-04-28 17:14:00,
2013-04-28 13:19:00,75.0,35.8,30.07,South,180,10.4,10.4,24,0.00,CLR,,0.00,WeatherDisplay:10.37,2013-04-28 17:19:00,
2013-04-28 13:24:00,75.6,36.2,30.06,South,180,10.4,10.4,24,0.00,CLR,,0.00,WeatherDisplay:10.37,2013-04-28 17:24:00,
2013-04-28 13:29:00,75.6,36.2,30.06,SE,135,10.4,10.4,24,0.00,CLR,,0.00,WeatherDisplay:10.37,2013-04-28 17:29:00,
2013-04-28 13:34:00,75.6,36.2,30.06,East,90,9.2,9.2,24,0.00,CLR,,0.00,WeatherDisplay:10.37,2013-04-28 17:34:00,
2013-04-28 13:39:00,76.3,36.8,30.06,East,90,12.7,12.7,24,0.00,CLR,,0.00,WeatherDisplay:10.37,2013-04-28 17:39:00,
2013-04-28 13:44:00,75.9,36.5,30.05,South,180,8.1,8.1,24,0.00,CLR,,0.00,WeatherDisplay:10.37,2013-04-28 17:44:00,
2013-04-28 13:49:00,75.9,36.5,30.05,SE,135,9.2,9.2,24,0.00,CLR,,0.00,WeatherDisplay:10.37,2013-04-28 17:49:00,
2013-04-28 13:54:00,75.0,36.8,30.06,East,90,11.5,11.5,25,0.00,CLR,,0.00,WeatherDisplay:10.37,2013-04-28 17:54:00,
2013-04-28 13:59:00,74.7,34.4,30.06,East,90,9.2,9.2,23,0.00,CLR,,0.00,WeatherDisplay:10.37,2013-04-28 17:59:00,
2013-04-28 14:04:00,74.8,35.6,30.05,East,90,15.0,15.0,24,0.00,CLR,,0.00,WeatherDisplay:10.37,2013-04-28 18:04:00,
2013-04-28 14:09:00,73.9,33.8,30.06,NE,45,12.7,12.7,23,0.00,CLR,,0.00,WeatherDisplay:10.37,2013-04-28 18:09:00,
2013-04-28 14:14:00,73.8,34.7,30.05,NNE,22,12.7,12.7,24,0.00,CLR,,0.00,WeatherDisplay:10.37,2013-04-28 18:14:00,
2013-04-28 14:19:00,73.6,35.6,30.06,SE,135,12.7,12.7,25,0.00,CLR,,0.00,WeatherDisplay:10.37,2013-04-28 18:19:00,
2013-04-28 14:24:00,73.4,35.4,30.06,SW,225,12.1,12.1,25,0.00,CLR,,0.00,WeatherDisplay:10.37,2013-04-28 18:24:00,
2013-04-28 14:29:00,73.0,31.9,30.06,South,180,17.3,17.3,22,0.00,CLR,,0.00,WeatherDisplay:10.37,2013-04-28 18:29:00,
2013-04-28 14:34:00,72.5,31.5,30.06,SE,135,12.7,12.7,22,0.00,CLR,,0.00,WeatherDisplay:10.37,2013-04-28 18:34:00,
2013-04-28 14:39:00,72.7,32.7,30.06,East,90,9.2,9.2,23,0.00,CLR,,0.00,WeatherDisplay:10.37,2013-04-28 18:39:00,
2013-04-28 14:44:00,72.9,33.9,30.05,SE,135,5.8,5.8,24,0.00,CLR,,0.00,WeatherDisplay:10.37,2013-04-28 18:44:00,
2013-04-28 14:49:00,72.3,33.5,30.05,SE,135,11.5,11.5,24,0.00,CLR,,0.00,WeatherDisplay:10.37,2013-04-28 18:49:00,
2013-04-28 14:54:00,72.1,33.3,30.05,East,90,10.4,10.4,24,0.00,CLR,,0.00,WeatherDisplay:10.37,2013-04-28 18:54:00,
2013-04-28 14:59:00,72.0,33.2,30.05,SE,135,15.0,15.0,24,0.00,CLR,,0.00,WeatherDisplay:10.37,2013-04-28 18:59:00,
2013-04-28 15:04:00,71.8,35.0,30.05,South,180,5.8,5.8,26,0.00,CLR,,0.00,WeatherDisplay:10.37,2013-04-28 19:04:00,
2013-04-28 15:09:00,72.0,36.1,30.05,East,90,6.9,6.9,27,0.00,CLR,,0.00,WeatherDisplay:10.37,2013-04-28 19:09:00,
2013-04-28 15:14:00,72.0,35.2,30.04,South,180,9.2,9.2,26,0.00,CLR,,0.00,WeatherDisplay:10.37,2013-04-28 19:14:00,
2013-04-28 15:19:00,72.0,36.1,30.04,South,180,9.2,9.2,27,0.00,CLR,,0.00,WeatherDisplay:10.37,2013-04-28 19:19:00,
2013-04-28 15:24:00,71.8,36.0,30.04,SE,135,6.9,6.9,27,0.00,CLR,,0.00,WeatherDisplay:10.37,2013-04-28 19:24:00,
2013-04-28 15:29:00,71.6,36.8,30.04,East,90,10.4,10.4,28,0.00,CLR,,0.00,WeatherDisplay:10.37,2013-04-28 19:29:00,
2013-04-28 15:34:00,71.4,38.4,30.04,South,180,11.5,11.5,30,0.00,CLR,,0.00,WeatherDisplay:10.37,2013-04-28 19:34:00,
2013-04-28 15:39:00,70.9,39.5,30.04,SW,225,8.1,8.1,32,0.00,CLR,,0.00,WeatherDisplay:10.37,2013-04-28 19:39:00,
2013-04-28 15:44:00,69.6,40.7,30.04,SW,225,15.0,15.0,35,0.00,CLR,,0.00,WeatherDisplay:10.37,2013-04-28 19:44:00,
2013-04-28 15:49:00,67.8,43.2,30.04,SW,225,10.4,10.4,41,0.00,CLR,,0.00,WeatherDisplay:10.37,2013-04-28 19:49:00,
2013-04-28 15:54:00,66.9,44.3,30.05,South,180,10.4,10.4,44,0.00,CLR,,0.00,WeatherDisplay:10.37,2013-04-28 19:54:00,
2013-04-28 15:59:00,66.0,44.6,30.05,South,180,10.4,10.4,46,0.00,CLR,,0.00,WeatherDisplay:10.37,2013-04-28 19:59:00,
2013-04-28 16:04:00,65.5,44.7,30.04,SW,225,17.3,17.3,47,0.00,CLR,,0.00,WeatherDisplay:10.37,2013-04-28 20:04:00,
2013-04-28 16:09:00,64.9,44.8,30.05,SW,225,13.8,13.8,48,0.00,CLR,,0.00,WeatherDisplay:10.37,2013-04-28 20:09:00,
2013-04-28 16:14:00,64.8,45.1,30.05,SW,225,12.7,12.7,49,0.00,CLR,,0.00,WeatherDisplay:10.37,2013-04-28 20:14:00,
2013-04-28 16:19:00,64.6,45.5,30.05,SSW,202,9.2,9.2,50,0.00,CLR,,0.00,WeatherDisplay:10.37,2013-04-28 20:19:00,
2013-04-28 16:24:00,64.0,45.5,30.05,SW,225,17.3,17.3,51,0.00,CLR,,0.00,WeatherDisplay:10.37,2013-04-28 20:24:00,
2013-04-28 16:29:00,64.0,45.5,30.05,SW,225,15.0,15.0,51,0.00,CLR,,0.00,WeatherDisplay:10.37,2013-04-28 20:29:00,
2013-04-28 16:34:00,64.0,45.5,30.05,SW,225,15.0,15.0,51,0.00,CLR,,0.00,WeatherDisplay:10.37,2013-04-28 20:34:00,
2013-04-28 16:39:00,64.2,46.2,30.05,South,180,15.0,15.0,52,0.00,CLR,,0.00,WeatherDisplay:10.37,2013-04-28 20:39:00,
2013-04-28 16:44:00,64.0,46.1,30.06,SW,225,13.8,13.8,52,0.00,CLR,,0.00,WeatherDisplay:10.37,2013-04-28 20:44:00,
2013-04-28 16:49:00,63.9,45.9,30.05,NNE,22,12.7,12.7,52,0.00,CLR,,0.00,WeatherDisplay:10.37,2013-04-28 20:49:00,
2013-04-28 16:54:00,63.3,45.9,30.06,NW,315,19.6,19.6,53,0.00,CLR,,0.00,WeatherDisplay:10.37,2013-04-28 20:54:00,
2013-04-28 16:59:00,62.8,46.4,30.06,NW,315,12.7,12.7,55,0.00,CLR,,0.00,WeatherDisplay:10.37,2013-04-28 20:59:00,
2013-04-28 17:04:00,61.9,47.8,30.06,South,180,12.7,12.7,60,0.00,CLR,,0.00,WeatherDisplay:10.37,2013-04-28 21:04:00,
2013-04-28 17:12:00,60.8,49.0,30.06,SW,225,12.7,12.7,65,0.00,CLR,,0.00,WeatherDisplay:10.37,2013-04-28 21:12:00,
2013-04-28 17:17:00,60.1,49.5,30.07,SE,135,3.5,6.0,68,0.00,CLR,,0.00,WeatherDisplay:10.37,2013-04-28 21:17:00,
2013-04-28 17:22:00,59.4,49.6,30.07,East,90,8.1,8.1,70,0.01,RA,,0.01,WeatherDisplay:10.37,2013-04-28 21:22:00,
2013-04-28 17:27:00,59.0,50.4,30.07,North,0,3.5,0.0,73,0.01,RA,,0.01,WeatherDisplay:10.37,2013-04-28 21:27:00,
2013-04-28 17:32:00,58.5,50.6,30.06,West,270,5.8,5.8,75,0.01,CLR,,0.01,WeatherDisplay:10.37,2013-04-28 21:32:00,
2013-04-28 17:37:00,58.3,50.7,30.07,South,180,4.6,4.6,76,0.02,RA,,0.02,WeatherDisplay:10.37,2013-04-28 21:37:00,
2013-04-28 17:42:00,58.5,50.6,30.07,South,180,10.4,10.4,75,0.02,RA,,0.02,WeatherDisplay:10.37,2013-04-28 21:42:00,
2013-04-28 17:47:00,59.0,50.4,30.07,North,0,8.1,8.1,73,0.02,CLR,,0.02,WeatherDisplay:10.37,2013-04-28 21:47:00,
2013-04-28 17:52:00,59.2,50.2,30.06,SE,135,12.7,12.7,72,0.04,RA,,0.04,WeatherDisplay:10.37,2013-04-28 21:52:00,
2013-04-28 17:57:00,59.4,49.2,30.07,SE,135,15.0,15.0,69,0.04,RA,,0.04,WeatherDisplay:10.37,2013-04-28 21:57:00,
2013-04-28 18:02:00,59.0,49.2,30.07,East,90,8.1,8.1,70,0.04,CLR,,0.04,WeatherDisplay:10.37,2013-04-28 22:02:00,
2013-04-28 18:07:00,58.6,49.3,30.07,SE,135,8.1,8.1,71,0.04,CLR,,0.04,WeatherDisplay:10.37,2013-04-28 22:07:00,
2013-04-28 18:12:00,58.6,48.9,30.07,South,180,13.8,13.8,70,0.05,RA,,0.05,WeatherDisplay:10.37,2013-04-28 22:12:00,
2013-04-28 18:17:00,58.5,49.1,30.07,South,180,12.7,12.7,71,0.05,RA,,0.05,WeatherDisplay:10.37,2013-04-28 22:17:00,
2013-04-28 18:22:00,58.5,49.1,30.08,SE,135,9.2,9.2,71,0.04,CLR,,0.05,WeatherDisplay:10.37,2013-04-28 22:22:00,
2013-04-28 18:27:00,58.5,49.5,30.07,NE,45,9.2,9.2,72,0.04,CLR,,0.05,WeatherDisplay:10.37,2013-04-28 22:27:00,
2013-04-28 18:32:00,58.3,49.3,30.07,SE,135,9.2,9.2,72,0.04,CLR,,0.05,WeatherDisplay:10.37,2013-04-28 22:32:00,
2013-04-28 18:37:00,58.3,49.3,30.07,SE,135,8.1,8.3,72,0.02,CLR,,0.05,WeatherDisplay:10.37,2013-04-28 22:37:00,
2013-04-28 18:42:00,58.1,49.5,30.07,South,180,8.1,8.1,73,0.02,CLR,,0.05,WeatherDisplay:10.37,2013-04-28 22:42:00,
2013-04-28 18:47:00,57.9,49.3,30.06,South,180,9.2,9.2,73,0.04,RA,,0.06,WeatherDisplay:10.37,2013-04-28 22:47:00,
2013-04-28 18:52:00,57.7,49.5,30.06,South,180,8.1,8.1,74,0.02,RA,,0.06,WeatherDisplay:10.37,2013-04-28 22:52:00,
2013-04-28 18:57:00,57.7,49.9,30.06,SE,135,6.9,6.9,75,0.02,CLR,,0.06,WeatherDisplay:10.37,2013-04-28 22:57:00,
2013-04-28 19:02:00,57.6,49.7,30.06,SE,135,5.8,5.8,75,0.02,CLR,,0.06,WeatherDisplay:10.37,2013-04-28 23:02:00,
2013-04-28 19:07:00,57.6,49.3,30.06,East,90,17.3,17.3,74,0.02,CLR,,0.06,WeatherDisplay:10.37,2013-04-28 23:07:00,
2013-04-28 19:12:00,57.6,48.6,30.05,East,90,13.8,13.8,72,0.01,CLR,,0.06,WeatherDisplay:10.37,2013-04-28 23:12:00,
2013-04-28 19:17:00,57.2,48.3,30.04,SE,135,10.4,10.4,72,0.01,CLR,,0.06,WeatherDisplay:10.37,2013-04-28 23:17:00,
2013-04-28 19:22:00,56.8,48.3,30.04,SE,135,17.3,17.3,73,0.01,CLR,,0.06,WeatherDisplay:10.37,2013-04-28 23:22:00,
2013-04-28 19:27:00,56.7,48.1,30.04,South,180,12.7,12.7,73,0.01,CLR,,0.06,WeatherDisplay:10.37,2013-04-28 23:27:00,
2013-04-28 19:32:00,56.5,48.3,30.03,SE,135,12.7,12.7,74,0.01,CLR,,0.06,WeatherDisplay:10.37,2013-04-28 23:32:00,
2013-04-28 19:37:00,56.5,48.3,30.03,South,180,15.0,15.0,74,0.01,CLR,,0.06,WeatherDisplay:10.37,2013-04-28 23:37:00,
2013-04-28 19:42:00,56.5,48.3,30.03,SE,135,11.5,11.5,74,0.01,CLR,,0.06,WeatherDisplay:10.37,2013-04-28 23:42:00,
2013-04-28 19:47:00,56.3,48.5,30.03,East,90,8.1,8.1,75,0.00,CLR,,0.06,WeatherDisplay:10.37,2013-04-28 23:47:00,
2013-04-28 19:52:00,56.3,48.5,30.03,SE,135,8.1,8.1,75,0.00,CLR,,0.06,WeatherDisplay:10.37,2013-04-28 23:52:00,
2013-04-28 19:57:00,56.5,48.3,30.03,SE,135,12.7,12.7,74,0.00,CLR,,0.06,WeatherDisplay:10.37,2013-04-28 23:57:00,
2013-04-28 20:02:00,56.5,48.3,30.03,South,180,10.4,10.4,74,0.00,CLR,,0.06,WeatherDisplay:10.37,2013-04-29 00:02:00,
2013-04-28 20:07:00,56.7,48.1,30.03,SE,135,12.7,12.7,73,0.00,CLR,,0.06,WeatherDisplay:10.37,2013-04-29 00:07:00,
2013-04-28 20:13:00,56.7,48.1,30.03,SE,135,5.8,7.6,73,0.00,CLR,,0.06,WeatherDisplay:10.37,2013-04-29 00:13:00,
2013-04-28 20:18:00,56.7,47.7,30.02,SE,135,8.1,8.1,72,0.00,CLR,,0.06,WeatherDisplay:10.37,2013-04-29 00:18:00,
2013-04-28 20:23:00,56.7,47.7,30.02,SE,135,8.1,8.1,72,0.00,CLR,,0.06,WeatherDisplay:10.37,2013-04-29 00:23:00,
2013-04-28 20:28:00,56.5,47.9,30.02,East,90,10.7,10.7,73,0.00,CLR,,0.06,WeatherDisplay:10.37,2013-04-29 00:28:00,
2013-04-28 20:33:00,56.7,47.7,30.02,South,180,8.1,8.1,72,0.00,CLR,,0.06,WeatherDisplay:10.37,2013-04-29 00:33:00,
2013-04-28 20:38:00,56.7,47.7,30.02,South,180,11.5,11.5,72,0.00,CLR,,0.06,WeatherDisplay:10.37,2013-04-29 00:38:00,
2013-04-28 20:43:00,56.7,47.7,30.03,SE,135,12.7,12.7,72,0.00,CLR,,0.06,WeatherDisplay:10.37,2013-04-29 00:43:00,
2013-04-28 20:48:00,56.7,47.4,30.03,WSW,248,12.7,12.7,71,0.00,CLR,,0.06,WeatherDisplay:10.37,2013-04-29 00:48:00,
2013-04-28 20:53:00,56.5,47.6,30.03,South,180,13.8,13.8,72,0.00,CLR,,0.06,WeatherDisplay:10.37,2013-04-29 00:53:00,
2013-04-28 20:58:00,56.1,47.6,30.03,SE,135,17.3,17.3,73,0.00,CLR,,0.06,WeatherDisplay:10.37,2013-04-29 00:58:00,
2013-04-28 21:03:00,55.8,48.0,30.03,SE,135,8.1,8.1,75,0.00,CLR,,0.06,WeatherDisplay:10.37,2013-04-29 01:03:00,
2013-04-28 21:08:00,55.6,47.8,30.03,East,90,8.1,8.1,75,0.00,CLR,,0.06,WeatherDisplay:10.37,2013-04-29 01:08:00,
2013-04-28 21:13:00,55.4,48.0,30.03,SE,135,6.9,6.9,76,0.00,CLR,,0.06,WeatherDisplay:10.37,2013-04-29 01:13:00,
2013-04-28 21:18:00,55.6,48.1,30.03,SW,225,8.1,8.1,76,0.00,CLR,,0.06,WeatherDisplay:10.37,2013-04-29 01:18:00,
2013-04-28 21:23:00,55.9,48.1,30.03,South,180,8.1,8.1,75,0.00,CLR,,0.06,WeatherDisplay:10.37,2013-04-29 01:23:00,
2013-04-28 21:28:00,55.9,47.4,30.03,South,180,8.1,8.1,73,0.00,CLR,,0.06,WeatherDisplay:10.37,2013-04-29 01:28:00,
2013-04-28 21:33:00,56.3,47.0,30.03,East,90,8.1,8.1,71,0.00,CLR,,0.06,WeatherDisplay:10.37,2013-04-29 01:33:00,
2013-04-28 21:38:00,56.5,46.8,30.03,East,90,9.2,9.2,70,0.01,RA,,0.07,WeatherDisplay:10.37,2013-04-29 01:38:00,
2013-04-28 21:43:00,56.5,46.8,30.03,SE,135,10.4,10.4,70,0.01,RA,,0.07,WeatherDisplay:10.37,2013-04-29 01:43:00,
2013-04-28 21:48:00,56.5,46.8,30.02,South,180,5.8,5.8,70,0.01,CLR,,0.07,WeatherDisplay:10.37,2013-04-29 01:48:00,
2013-04-28 21:53:00,56.5,46.8,30.02,SE,135,8.1,8.1,70,0.01,CLR,,0.07,WeatherDisplay:10.37,2013-04-29 01:53:00,
2013-04-28 21:58:00,56.3,46.6,30.02,SE,135,13.8,13.8,70,0.01,CLR,,0.07,WeatherDisplay:10.37,2013-04-29 01:58:00,
2013-04-28 22:03:00,56.5,46.8,30.02,South,180,11.5,11.5,70,0.01,CLR,,0.07,WeatherDisplay:10.37,2013-04-29 02:03:00,
2013-04-28 22:08:00,56.3,46.6,30.02,SE,135,12.7,12.7,70,0.01,CLR,,0.07,WeatherDisplay:10.37,2013-04-29 02:08:00,
2013-04-28 22:13:00,56.3,46.6,30.02,SE,135,15.0,15.0,70,0.01,CLR,,0.07,WeatherDisplay:10.37,2013-04-29 02:13:00,
2013-04-28 22:18:00,56.3,46.6,30.02,South,180,9.2,9.2,70,0.01,CLR,,0.07,WeatherDisplay:10.37,2013-04-29 02:18:00,
2013-04-28 22:23:00,56.1,46.5,30.02,SE,135,11.5,11.5,70,0.01,CLR,,0.07,WeatherDisplay:10.37,2013-04-29 02:23:00,
2013-04-28 22:28:00,56.1,46.5,30.02,South,180,8.1,8.1,70,0.01,CLR,,0.07,WeatherDisplay:10.37,2013-04-29 02:28:00,
2013-04-28 22:33:00,56.1,46.5,30.02,South,180,10.4,10.4,70,0.01,CLR,,0.07,WeatherDisplay:10.37,2013-04-29 02:33:00,
2013-04-28 22:38:00,56.1,46.5,30.02,SE,135,9.2,9.2,70,0.00,CLR,,0.07,WeatherDisplay:10.37,2013-04-29 02:38:00,
2013-04-28 22:43:00,55.9,46.7,30.02,South,180,10.4,10.4,71,0.00,CLR,,0.07,WeatherDisplay:10.37,2013-04-29 02:43:00,
2013-04-28 22:48:00,56.1,46.8,30.01,South,180,11.5,11.5,71,0.00,CLR,,0.07,WeatherDisplay:10.37,2013-04-29 02:48:00,
2013-04-28 22:53:00,55.9,46.7,30.01,East,90,6.9,6.9,71,0.00,CLR,,0.07,WeatherDisplay:10.37,2013-04-29 02:53:00,
2013-04-28 22:58:00,55.9,46.7,30.01,East,90,9.2,9.2,71,0.00,CLR,,0.07,WeatherDisplay:10.37,2013-04-29 02:58:00,
2013-04-28 23:03:00,55.9,46.7,30.01,SE,135,9.8,9.8,71,0.00,CLR,,0.07,WeatherDisplay:10.37,2013-04-29 03:03:00,
2013-04-28 23:08:00,56.1,46.5,30.01,East,90,8.1,8.1,70,0.00,CLR,,0.07,WeatherDisplay:10.37,2013-04-29 03:08:00,
2013-04-28 23:13:00,56.1,46.5,30.01,SW,225,5.8,6.0,70,0.00,CLR,,0.07,WeatherDisplay:10.37,2013-04-29 03:13:00,
2013-04-28 23:18:00,56.1,46.5,30.01,South,180,12.7,12.7,70,0.00,CLR,,0.07,WeatherDisplay:10.37,2013-04-29 03:18:00,
2013-04-28 23:23:00,56.1,46.5,30.01,East,90,8.1,8.1,70,0.00,CLR,,0.07,WeatherDisplay:10.37,2013-04-29 03:23:00,
2013-04-28 23:28:00,55.9,46.3,30.01,SE,135,9.2,9.2,70,0.00,CLR,,0.07,WeatherDisplay:10.37,2013-04-29 03:28:00,
2013-04-28 23:33:00,56.1,46.5,30.00,East,90,10.4,10.4,70,0.00,CLR,,0.07,WeatherDisplay:10.37,2013-04-29 03:33:00,
2013-04-28 23:38:00,56.1,46.5,30.00,East,90,10.4,10.4,70,0.00,CLR,,0.07,WeatherDisplay:10.37,2013-04-29 03:38:00,
2013-04-28 23:43:00,55.9,46.3,30.00,East,90,8.1,8.1,70,0.00,CLR,,0.07,WeatherDisplay:10.37,2013-04-29 03:43:00,
2013-04-28 23:48:00,55.9,46.3,30.00,SE,135,6.0,6.0,70,0.00,CLR,,0.07,WeatherDisplay:10.37,2013-04-29 03:48:00,
2013-04-28 23:53:00,55.9,46.7,30.00,SE,135,4.6,4.6,71,0.00,CLR,,0.07,WeatherDisplay:10.37,2013-04-29 03:53:00,
2013-04-28 23:58:00,55.9,46.7,30.00,East,90,5.8,5.8,71,0.00,CLR,,0.07,WeatherDisplay:10.37,2013-04-29 03:58:00,